"Pseudo-MPEC" for CARV112

Created 2024 Sep 9 11:22:06 UT using Find_Orb

Click here for an explanation of pseudo-MPECs

 
 Astrometry: 
     CARV112*1C2024 09 07.43741804 00 29.430+14 30 44.35   ~97B7 21.78GVNEOCPG96
     CARV112 1C2024 09 07.44254504 00 30.676+14 30 57.89   ~97B7 21.07GVNEOCPG96
     CARV112 1C2024 09 07.44768104 00 31.878+14 31 10.81   ~97B7 21.28GVNEOCPG96
     CARV112  C2024 09 07.46998604 00 37.077+14 32 10.11   ~97C7 20.8 GVNEOCPH01
     CARV112  C2024 09 07.47420004 00 38.075+14 32 21.34   ~97C7 20.8 GVNEOCPH01
     CARV112  C2024 09 07.48418104 00 40.433+14 32 47.81   ~97C7 21.0 GVNEOCPH01
     CARV112  C2024 09 07.49146404 00 42.155+14 33 07.06   ~97C7 21.6 GVNEOCPH01
     CARV112 KC2024 09 07.49296304 00 42.592+14 33 11.63   ~97CM 21.47GVNEOCPV06
     CARV112 KC2024 09 07.49584604 00 43.268+14 33 19.33   ~97CM 21.15GVNEOCPV06
     CARV112 KC2024 09 07.49894804 00 44.006+14 33 27.54   ~97CM 21.13GVNEOCPV06
     CARV112 KC2024 09 07.50165604 00 44.654+14 33 34.85   ~97CM 21.34GVNEOCPV06
     CARV112 1C2024 09 08.02812 04 02 54.26 +14 56 39.8    ~9817 20.9 VXNEOCP033
     CARV112 1C2024 09 08.03063 04 02 54.83 +14 56 46.3    ~9817 20.9 VXNEOCP033
     CARV112 1C2024 09 08.03313 04 02 55.45 +14 56 52.9    ~9817 20.8 VXNEOCP033
     CARV112 1C2024 09 08.10556 04 03 12.79 +15 00 05.6    ~9837 20.7 VXNEOCP033
     CARV112 1C2024 09 08.10773 04 03 13.31 +15 00 11.6    ~9837 20.5 VXNEOCP033
     CARV112 1C2024 09 08.10990 04 03 13.82 +15 00 17.2    ~9837 20.8 VXNEOCP033
     CARV112 KC2024 09 08.39225504 04 23.459+15 12 48.67   ~98A7 20.84GVNEOCPI52
     CARV112 KC2024 09 08.39541104 04 24.258+15 12 57.28   ~98A7 21.31GVNEOCPI52
     CARV112 KC2024 09 08.39703904 04 24.614+15 13 01.88   ~98A7 21.34GVNEOCPI52
     CARV112 KC2024 09 08.39868304 04 25.007+15 13 05.74   ~98A7 21.00GVNEOCPI52
     CARV112  C2024 09 09.44210504 08 39.559+15 58 56.47   ~99BM 20.8 GVNEOCPH01
     CARV112  C2024 09 09.44547104 08 40.353+15 59 05.36   ~99BM 20.7 GVNEOCPH01
     CARV112  C2024 09 09.45584204 08 42.804+15 59 32.74   ~99BM 20.7 GVNEOCPH01
     CARV112  C2024 09 09.46281004 08 44.445+15 59 51.19   ~99BM 20.6 GVNEOCPH01

Station data:
(033) Karl Schwarzschild Observatory, Tautenburg  (N50.980139 E11.711240)
   Germany.  Observer B. Stecklum. 1.34-m f/3 Schmidt + CCD.
(G96) Mt. Lemmon Survey  (N32.442729 W110.788720)  US/Arizona.  Observer E.
   J. Christensen. 1.5-m reflector + 10K CCD.
(H01) Magdalena Ridge Observatory, Socorro  (N33.984833 W107.189333)  US/New
   Mexico.  Observers W. H. Ryan, E. V. Ryan. Measurer W. H. Ryan. 2.4-m
   f/8.9 reflector + CCD.
(I52) Steward Observatory, Mt. Lemmon Station  (N32.442570 W110.788920)
   US/Arizona.  Observers T. A. Pruyne, B. M. Africano, E. J. Christensen, G.
   A. Farneth, D. C. Fuls, A. R. Gibbs, A. D. Grauer, H. Gröller, J. A.
   Johnson, R. A. Kowalski, S. M. Larson, G. J. Leonard, D. Rankin, R. L.
   Seaman, F. C. Shelly, K. W. Wierzchoś. 1.0-m prime focus + CCD.
(V06) Catalina Sky Survey-Kuiper  (N32.416871 W110.732550)  US/Arizona.
   Observers T. A. Pruyne, B. M. Africano, E. J. Christensen, G. A. Farneth,
   D. C. Fuls, A. R. Gibbs, A. D. Grauer, H. Gröller, J. A. Johnson, R. A.
   Kowalski, S. M. Larson, G. J. Leonard, D. Rankin, R. L. Seaman, F. C.
   Shelly, K. W. Wierzchoś. 1.55-m reflector + CCD.

Orbital elements:  CARV112
   Perihelion 2024 Sep 21.48100 +/- 0.176 TT = 11:32:38 (JD 2460574.98100)
Epoch 2024 Sep  9.0 TT = JDT 2460562.5   Earth MOID: 0.1441      AutoNEOCP
M 356.75490933 +/- 0.22             (J2000 ecliptic)
n   0.26000246 +/- 0.015            Peri.    3.12137 +/- 0.17
a   2.43118347 +/- 0.0933           Node    13.70009 +/- 0.28
e   0.5298313 +/- 0.0166            Incl.   10.29486 +/- 0.14
P   3.79076                H 20.98  G  0.15   U  9.9
q 1.14306630 +/- 0.00349    Q 3.71930063 +/- 0.183
From 25 observations 2024 Sept. 7-9; mean residual 0".18
Residuals in arcseconds: 
240907 G96  .24-  .29+    240907 V06  .01+  .01-    240908 I52  .54+  .03+    
240907 G96  .19+  .18+    240907 V06  .13+  .13+    240908 I52  .08+  .30+    
240907 G96  .03-  .57-    240908 033  .15+  .10+    240908 I52  .11+  .22-    
240907 H01  .08+  .04-    240908 033  .34-  .08-    240909 H01  .02-  .02-    
240907 H01  .09+  .00     240908 033  .07-  .14-    240909 H01  .03-  .03-    
240907 H01  .06+  .00     240908 033  .23-  .03+    240909 H01  .03+  .03-    
240907 H01  .06+  .06-    240908 033  .20-  .27+    240909 H01  .00   .03+    
240907 V06  .01+  .05-    240908 033  .32-  .12+    
240907 V06  .07-  .01+    240908 I52  .15-  .17-    

Ephemerides (geocentric):
Date (UTC) HH   RA             Dec           delta  r     elong  mag " sig PA
---- --------  ------------   ------------  ------ ------ -----  --- --------
2024 09 09 11  04 08 43.017   +15 59 46.79  .36961 1.1517 103.6 21.2 .234 139
2024 09 09 12  04 08 53.188   +16 01 36.35  .36956 1.1516 103.6 21.2 .234 140
2024 09 09 13  04 09 03.358   +16 03 25.90  .36952 1.1516 103.6 21.2 .235 141
2024 09 09 14  04 09 13.527   +16 05 15.42  .36948 1.1515 103.6 21.2 .235 142
2024 09 09 15  04 09 23.695   +16 07 04.92  .36944 1.1515 103.6 21.2 .236 143
2024 09 09 16  04 09 33.862   +16 08 54.40  .36940 1.1514 103.6 21.2 .237 144
2024 09 09 17  04 09 44.029   +16 10 43.86  .36936 1.1513 103.6 21.2 .237 145
2024 09 09 18  04 09 54.194   +16 12 33.31  .36932 1.1513 103.6 21.2 .238 146
2024 09 09 19  04 10 04.359   +16 14 22.72  .36928 1.1512 103.6 21.2 .239 147
2024 09 09 20  04 10 14.523   +16 16 12.12  .36924 1.1512 103.6 21.2 .240 148
2024 09 09 21  04 10 24.686   +16 18 01.50  .36920 1.1511 103.6 21.2 .241 150
2024 09 09 22  04 10 34.848   +16 19 50.86  .36916 1.1510 103.6 21.2 .242 151
2024 09 09 23  04 10 45.010   +16 21 40.19  .36912 1.1510 103.6 21.2 .244 152
2024 09 10 00  04 10 55.170   +16 23 29.50  .36908 1.1509 103.6 21.2 .245 153
2024 09 10 01  04 11 05.329   +16 25 18.79  .36904 1.1509 103.6 21.2 .247 155
2024 09 10 02  04 11 15.488   +16 27 08.06  .36900 1.1508 103.6 21.2 .248 156
2024 09 10 03  04 11 25.645   +16 28 57.31  .36896 1.1508 103.6 21.2 .250 157
2024 09 10 04  04 11 35.802   +16 30 46.53  .36892 1.1507 103.5 21.2 .253 159
2024 09 10 05  04 11 45.958   +16 32 35.73  .36888 1.1507 103.5 21.2 .255 160
2024 09 10 06  04 11 56.113   +16 34 24.91  .36885 1.1506 103.5 21.2 .257 162
2024 09 10 07  04 12 06.267   +16 36 14.07  .36881 1.1505 103.5 21.2 .260 163
2024 09 10 08  04 12 16.419   +16 38 03.20  .36877 1.1505 103.5 21.2 .263 165
2024 09 10 09  04 12 26.571   +16 39 52.31  .36873 1.1504 103.5 21.2 .267 166
2024 09 10 10  04 12 36.722   +16 41 41.40  .36870 1.1504 103.5 21.2 .270 168
2024 09 10 11  04 12 46.872   +16 43 30.46  .36866 1.1503 103.5 21.2 .274 169
2024 09 10 12  04 12 57.021   +16 45 19.50  .36862 1.1503 103.5 21.2 .278 171
2024 09 10 13  04 13 07.170   +16 47 08.52  .36858 1.1502 103.5 21.2 .282 172
2024 09 10 14  04 13 17.317   +16 48 57.51  .36855 1.1502 103.5 21.2 .287 174
2024 09 10 15  04 13 27.463   +16 50 46.48  .36851 1.1501 103.5 21.2 .292 175
2024 09 10 16  04 13 37.608   +16 52 35.42  .36848 1.1500 103.5 21.2 .297 177
2024 09 10 17  04 13 47.752   +16 54 24.34  .36844 1.1500 103.5 21.2 .303 178
2024 09 10 18  04 13 57.895   +16 56 13.24  .36840 1.1499 103.5 21.2 .309   0
2024 09 10 19  04 14 08.037   +16 58 02.11  .36837 1.1499 103.5 21.2 .315   1
2024 09 10 20  04 14 18.178   +16 59 50.95  .36833 1.1498 103.5 21.2 .322   3
2024 09 10 21  04 14 28.318   +17 01 39.77  .36830 1.1498 103.5 21.2 .329   4
2024 09 10 22  04 14 38.457   +17 03 28.57  .36826 1.1497 103.5 21.2 .336   6
2024 09 10 23  04 14 48.595   +17 05 17.34  .36823 1.1497 103.5 21.2 .343   7
2024 09 11 00  04 14 58.732   +17 07 06.09  .36819 1.1496 103.5 21.2 .351   8
2024 09 11 01  04 15 08.868   +17 08 54.81  .36816 1.1496 103.5 21.2 .360  10
2024 09 11 02  04 15 19.003   +17 10 43.50  .36813 1.1495 103.5 21.2 .368  11
2024 09 11 03  04 15 29.137   +17 12 32.17  .36809 1.1495 103.4 21.2 .377  12
2024 09 11 04  04 15 39.270   +17 14 20.81  .36806 1.1494 103.4 21.2 .387  13
2024 09 11 05  04 15 49.401   +17 16 09.43  .36803 1.1494 103.4 21.2 .396  14
2024 09 11 06  04 15 59.532   +17 17 58.02  .36799 1.1493 103.4 21.2 .406  16
2024 09 11 07  04 16 09.661   +17 19 46.59  .36796 1.1493 103.4 21.2 .417  17
2024 09 11 08  04 16 19.790   +17 21 35.13  .36793 1.1492 103.4 21.2 .427  18
2024 09 11 09  04 16 29.917   +17 23 23.64  .36789 1.1492 103.4 21.2 .438  19
2024 09 11 10  04 16 40.043   +17 25 12.12  .36786 1.1491 103.4 21.2 .450  20